User: anonymous   Login
Location: Dallas
(32.7833°N, 96.8000°W)
Time: 22:17:09
(UTC-05:00)
Language:

ISS - Orbit

View from above orbital plane
View from above orbital plane
View from above satellite
View from above satellite

Ground track
Ground track

The orbit data is extracted from the following two-line orbital elements,

1 25544U 98067A   20267.51853762  .00016717  00000-0  10270-3 0  9023
2 25544  51.6407 221.8935 0000580  76.5742 283.5473 15.48947091  7253
Epoch (UTC): 23 September 2020 12:26:41
Eccentricity: 0.0000580
inclination: 51.6407°
perigee height: 419 km
apogee height: 420 km
right ascension of ascending node: 221.8935°
argument of perigee: 76.5742°
revolutions per day: 15.48947091
mean anomaly at epoch: 283.5473°
orbit number at epoch: 725

The dashed part of the orbit path shows where the satellite is in the earth's shadow,  

DLR